Point Lay, AK

2:46 AM AKDT on March 24, 2017 (GMT -0800)
Point Lay

Weather History for PPIZ - August, 2013

Change the Weather History Date:

Sunday, August 18, 2013

  Actual Average Record
Temperature  
Mean Temperature 42 °F -  
Max Temperature 45 °F 45 °F 60 °F (2005)
Min Temperature 38 °F 39 °F 30 °F (2006)
Degree Days  
Heating Degree Days 24    
Moisture  
Dew Point 38 °F    
Average Humidity 88    
Maximum Humidity 97    
Minimum Humidity 76    
Precipitation  
Precipitation 0.00 in - - ()
Sea Level Pressure  
Sea Level Pressure 29.74 in    
Wind  
Wind Speed 13 mph (NE)    
Max Wind Speed 20 mph    
Max Gust Speed 24 mph    
Visibility 10 miles    
Events Rain    
Averages and records for this station are not official NWS values.
T = Trace of Precipitation, MM = Missing Value Source: NWS Daily Summary

Daily Weather History Graph

Daily Weather History Graph

Search for Another Location

Airport or City:

Trip Planner

Search our weather history database for the weather conditions in past years. The results will help you decide how hot, cold, wet, or windy it might be!

Date:

Astronomy

Aug. 18, 2013 Rise Set
Actual Time 6:09 AM AKDT 11:38 PM AKDT
Civil Twilight 4:20 AM AKDT 1:21 AM AKDT
Nautical Twilight Sun does not rise Sun does not rise
Astronomical Twilight Sun does not rise Sun does not rise
Moon 10:20 PM AKDT (8/18) 2:26 AM AKDT (8/18)
Length of Visible Light 21h 00m
Length of Day
17h 29m
Waxing Gibbous, 93% of the Moon is Illuminated
Aug 18
Waxing Gibbous
Aug 20
Full
Aug 28
Last Quarter
Sep 5
New
Sep 12
First Quarter

Hourly Weather History & Observations

Time (AKDT) Temp. Windchill Dew Point Humidity Pressure Visibility Wind Dir Wind Speed Gust Speed Precip Events Conditions
12:56 AM 41.0 °F 34.3 °F 37.9 °F 89% 29.78 in 10.0 mi NE 11.5 mph - N/A   Overcast
1:56 AM 39.9 °F 33.4 °F 37.9 °F 93% 29.78 in 10.0 mi NNE 10.4 mph - N/A   Overcast
2:26 AM 39.2 °F 31.6 °F 37.4 °F 93% 29.77 in 10.0 mi NNE 12.7 mph - N/A   Overcast
2:56 AM 39.9 °F 32.5 °F 36.9 °F 89% 29.78 in 10.0 mi NNE 12.7 mph - N/A   Overcast
3:24 AM 39.2 °F 31.6 °F 37.4 °F 93% 29.77 in 10.0 mi NNE 12.7 mph - N/A   Overcast
3:49 AM 39.2 °F 31.6 °F 37.4 °F 93% 29.75 in 10.0 mi NNE 12.7 mph - N/A   Overcast
3:56 AM 39.2 °F 33.0 °F 37.4 °F 93% 29.75 in 10.0 mi NNE 9.2 mph - N/A   Overcast
4:11 AM 39.2 °F 32.5 °F 37.4 °F 93% 29.75 in 10.0 mi NE 10.4 mph - N/A   Overcast
4:56 AM 38.8 °F 32.6 °F 37.9 °F 97% 29.75 in 5.0 mi NE 9.2 mph - N/A   Overcast
5:05 AM 39.2 °F 32.5 °F 37.4 °F 93% 29.73 in 5.0 mi NE 10.4 mph - N/A   Overcast
5:56 AM 38.8 °F 33.2 °F 37.9 °F 97% 29.75 in 10.0 mi NE 8.1 mph - N/A   Overcast
6:19 AM 39.2 °F 33.6 °F 37.4 °F 93% 29.73 in 10.0 mi NE 8.1 mph - N/A   Overcast
6:56 AM 39.2 °F 33.0 °F 37.4 °F 93% 29.72 in 10.0 mi NE 9.2 mph - N/A   Overcast
7:56 AM 39.9 °F 33.4 °F 37.9 °F 93% 29.73 in 8.0 mi NNE 10.4 mph - N/A   Overcast
8:56 AM 41.0 °F 34.3 °F 38.8 °F 92% 29.73 in 10.0 mi NE 11.5 mph - N/A   Overcast
9:44 AM 42.8 °F 36.2 °F 39.2 °F 87% 29.71 in 10.0 mi NE 12.7 mph - N/A   Overcast
9:56 AM 42.8 °F 35.8 °F 39.2 °F 87% 29.71 in 10.0 mi NE 13.8 mph - N/A   Overcast
10:43 AM 42.8 °F 35.4 °F 39.2 °F 87% 29.71 in 10.0 mi ENE 15.0 mph - N/A   Overcast
10:56 AM 41.9 °F 34.6 °F 38.8 °F 89% 29.72 in 10.0 mi NE 13.8 mph - N/A   Overcast
11:26 AM 42.8 °F 35.1 °F 39.2 °F 87% 29.71 in 10.0 mi NE 16.1 mph - N/A   Overcast
11:56 AM 41.9 °F 34.6 °F 38.8 °F 89% 29.72 in 10.0 mi NE 13.8 mph - N/A   Overcast
12:12 PM 42.8 °F 36.2 °F 39.2 °F 87% 29.71 in 10.0 mi NE 12.7 mph - N/A   Overcast
12:42 PM 42.8 °F 36.2 °F 39.2 °F 87% 29.71 in 10.0 mi NE 12.7 mph - N/A   Overcast
12:56 PM 42.8 °F 36.6 °F 39.2 °F 87% 29.71 in 10.0 mi NE 11.5 mph - N/A   Overcast
1:56 PM 43.9 °F 37.9 °F 38.8 °F 82% 29.72 in 10.0 mi NE 11.5 mph - N/A   Overcast
2:15 PM 44.6 °F 37.8 °F 37.4 °F 76% 29.71 in 10.0 mi NE 15.0 mph - N/A   Scattered Clouds
2:25 PM 44.6 °F 37.8 °F 37.4 °F 76% 29.71 in 10.0 mi NE 15.0 mph - N/A   Mostly Cloudy
2:33 PM 44.6 °F 38.1 °F 37.4 °F 76% 29.71 in 10.0 mi NNE 13.8 mph - N/A   Scattered Clouds
2:56 PM 43.9 °F 36.5 °F 38.8 °F 82% 29.72 in 10.0 mi NNE 16.1 mph - N/A   Clear
3:56 PM 45.0 °F 38.2 °F 38.8 °F 79% 29.71 in 10.0 mi NE 15.0 mph - N/A   Clear
4:56 PM 45.0 °F 38.2 °F 41.0 °F 86% 29.71 in 10.0 mi ENE 15.0 mph - 0.00 in Rain Light Rain
5:56 PM 45.0 °F 37.6 °F 41.9 °F 89% 29.72 in 9.0 mi NE 17.3 mph 24.2 mph 0.00 in Rain Light Rain
6:22 PM 44.6 °F 37.2 °F 42.8 °F 93% 29.71 in 10.0 mi NE 17.3 mph 24.2 mph 0.00 in   Mostly Cloudy
6:56 PM 45.0 °F 37.6 °F 41.9 °F 89% 29.73 in 10.0 mi ENE 17.3 mph 23.0 mph 0.00 in   Mostly Cloudy
7:56 PM 43.9 °F 36.5 °F 39.9 °F 86% 29.75 in 10.0 mi NE 16.1 mph 23.0 mph N/A   Overcast
8:56 PM 41.9 °F 33.4 °F 38.8 °F 89% 29.76 in 10.0 mi NE 18.4 mph 24.2 mph N/A   Overcast
9:16 PM 42.8 °F 34.5 °F 39.2 °F 87% 29.75 in 10.0 mi NE 18.4 mph 23.0 mph N/A   Overcast
9:47 PM 42.8 °F 34.5 °F 37.4 °F 81% 29.76 in 10.0 mi NE 18.4 mph - N/A   Overcast
9:56 PM 41.9 °F 33.1 °F 37.9 °F 86% 29.77 in 10.0 mi NE 19.6 mph - N/A   Overcast
10:39 PM 39.2 °F 30.2 °F 37.4 °F 93% 29.77 in 10.0 mi NNE 17.3 mph - N/A   Mostly Cloudy
10:56 PM 39.9 °F 31.1 °F 36.9 °F 89% 29.78 in 10.0 mi NNE 17.3 mph - N/A   Mostly Cloudy
11:56 PM 39.9 °F 31.1 °F 36.0 °F 86% 29.79 in 10.0 mi NNE 17.3 mph - N/A   Overcast